User: anonymous   Login
Location: Bouchavesnes-Bergen
(49.9859°N, 2.9203°E)
Time: 13:50:49
(UTC+00:00)
Language:

Cosmos 468 Rocket - Orbit

View from above orbital plane
View from above orbital plane
View from above satellite
View from above satellite

Ground track
Ground track

The orbit data is extracted from the following two-line orbital elements,

1  5707U 71114B   21129.11190931  .00000090  00000-0  37515-4 0  9997
2  5707  74.0277 342.5562 0023928  60.9972 299.3576 14.38941885587307
Epoch (UTC): 09 May 2021 02:41:08
Eccentricity: 0.0023928
inclination: 74.0277°
perigee height: 745 km
apogee height: 779 km
right ascension of ascending node: 342.5562°
argument of perigee: 60.9972°
revolutions per day: 14.38941885
mean anomaly at epoch: 299.3576°
orbit number at epoch: 58730

The dashed part of the orbit path shows where the satellite is in the earth's shadow,  

DLR